Voltar ao catálogo

STARLINK-11116

AtivoComunicaçõesVLEO
NORAD 60045·PAYLOAD·🇺🇸 United States

Lançado Jun 8, 2024 de Vandenberg Space Force Base

Loading…

Próximas Passagens (próximas 24 horas)

TLE

AtualizadoSource: CelesTrak SupGP

Época: Sep 14, 2026, 22:28 UTC

1 60045C 24112H   26257.93659722  .00075403  00000+0  62095-3 0  2570
2 60045  53.1570  53.2831 0001047  75.3623 345.2374 15.69678551    10

Acompanhe STARLINK-11116 em tempo real com AllMySat

Download on the App Store